Weather reports worldwide

Advertisment
Brize Norton, United Kingdom (3649): temperature & dewpoint: 13.09.2019 18:00:00 - 19.09.2019 18:00:00 (BST)Brize Norton, United Kingdom (3649): temperature -20cm & temperature -100cm: 13.09.2019 18:00:00 - 19.09.2019 18:00:00 (BST)Brize Norton, United Kingdom (3649): wind speed: 13.09.2019 18:00:00 - 19.09.2019 18:00:00 (BST)Brize Norton, United Kingdom (3649): wind direction: 13.09.2019 18:00:00 - 19.09.2019 18:00:00 (BST)Brize Norton, United Kingdom (3649): reduced air pressure: 13.09.2019 18:00:00 - 19.09.2019 18:00:00 (BST)Brize Norton, United Kingdom (3649): visibility: 13.09.2019 18:00:00 - 19.09.2019 18:00:00 (BST)Brize Norton, United Kingdom (3649): sunshine duration: 13.09.2019 18:00:00 - 19.09.2019 18:00:00 (BST)Brize Norton, United Kingdom (3649): precipitation: 13.09.2019 18:00:00 - 19.09.2019 18:00:00 (BST)
Date & Time tt [°C] td [°C] tt -20cm [°C] tt -100cm [°C] ff [km/h] ff [kn] dd ppp [hPa] vv [km] sd [min] rr [mm]
19.09.2019 18:00:00 20,7 7,8 - - 9 5 E 1029,2 10 60 0,0
19.09.2019 17:00:00 20,9 7,4 - - 8 4 ESE 1029,4 35 60 0,0
19.09.2019 16:00:00 21,5 8,0 - - 8 4 E 1029,7 10 60 0,0
19.09.2019 15:00:00 21,3 8,2 - - 4 2 E 1030,1 10 60 0,0
19.09.2019 14:00:00 20,6 7,7 - - 5 3 N 1030,7 10 60 0,0
19.09.2019 13:00:00 19,7 7,2 - - 5 3 E 1031,3 30 60 0,0
19.09.2019 12:00:00 18,4 6,7 - - 5 3 E 1031,7 10 60 0,0
19.09.2019 11:00:00 17,2 7,6 - - 4 2 SE 1032,1 10 60 0,0
19.09.2019 10:00:00 15,4 8,5 15,2 15,7 2 1 SSE 1032,1 10 60 0,0
19.09.2019 09:00:00 12,9 8,6 - - 2 1 NNW 1032,1 10 60 0,0
19.09.2019 08:00:00 8,9 7,2 - - 2 1 NW 1031,8 10 30 0,0
19.09.2019 07:00:00 7,0 5,9 - - 2 1 WNW 1031,5 10 0 0,0
19.09.2019 06:00:00 7,5 6,0 - - 2 1 NW 1031,1 10 0 0,0
19.09.2019 05:00:00 8,0 6,1 - - 0 0 N 1031,1 10 0 0,0
19.09.2019 04:00:00 8,8 6,4 - - 2 1 N 1031,0 10 0 0,0
19.09.2019 03:00:00 9,9 6,5 - - 2 1 NE 1031,0 10 0 0,0
19.09.2019 02:00:00 10,8 6,9 - - 4 2 NNE 1030,9 10 0 0,0
19.09.2019 01:00:00 11,5 6,8 - - 0 0 N 1031,0 10 - 0,0
19.09.2019 00:00:00 12,0 6,3 - - 2 1 NNE 1030,9 10 0 0,0
18.09.2019 23:00:00 14,2 6,5 - - 8 4 N 1030,8 10 0 0,0
18.09.2019 22:00:00 15,0 6,6 - - 9 5 NNE 1030,3 10 0 0,0
18.09.2019 21:00:00 14,9 6,8 - - 9 5 N 1030,1 10 0 0,0
18.09.2019 20:00:00 14,5 6,1 - - 8 4 NNW 1029,6 10 0 0,0
18.09.2019 19:00:00 16,9 5,5 - - 8 4 N 1029,0 10 36 0,0
18.09.2019 18:00:00 18,1 5,1 - - 13 7 N 1028,9 10 60 0,0
18.09.2019 17:00:00 18,6 5,5 - - 13 7 N 1028,8 10 60 0,0
18.09.2019 16:00:00 18,7 5,5 - - 13 7 NNE 1029,2 10 60 0,0
18.09.2019 15:00:00 18,5 5,5 - - 8 4 NNW 1029,5 10 60 0,0
18.09.2019 14:00:00 17,7 5,1 - - 4 2 SW 1029,9 10 60 0,0
18.09.2019 13:00:00 16,6 4,6 - - 5 3 W 1030,2 40 60 0,0
18.09.2019 12:00:00 15,5 4,6 - - 5 3 NE 1030,6 10 60 0,0
18.09.2019 11:00:00 15,0 4,7 - - 5 3 SE 1030,7 10 60 0,0
18.09.2019 10:00:00 13,3 6,4 15,5 15,7 2 1 ENE 1031,0 10 60 0,0
18.09.2019 09:00:00 10,3 6,8 - - 4 2 NE 1030,7 10 60 0,0
18.09.2019 08:00:00 7,2 4,6 - - 2 1 NW 1030,3 10 36 0,0
18.09.2019 07:00:00 5,1 3,6 - - 2 1 NW 1030,0 10 0 0,0
18.09.2019 06:00:00 5,9 4,1 - - 0 0 N 1029,7 10 0 0,0
18.09.2019 05:00:00 6,6 4,4 - - 2 1 NE 1029,4 10 0 0,0
18.09.2019 04:00:00 7,2 4,9 - - 5 3 NNE 1029,3 30 0 0,0
18.09.2019 03:00:00 7,7 4,8 - - 4 2 NE 1029,2 10 0 0,0
18.09.2019 02:00:00 7,9 5,1 - - 11 6 NE 1029,2 10 0 0,0
18.09.2019 01:00:00 8,9 5,1 - - 9 5 NE 1028,9 10 - 0,0
18.09.2019 00:00:00 10,3 5,7 - - 5 3 E 1028,6 25 0 0,0
17.09.2019 23:00:00 11,1 5,6 - - 9 5 E 1028,3 10 0 0,0
17.09.2019 22:00:00 11,9 5,5 - - 11 6 NE 1027,9 10 0 0,0
17.09.2019 21:00:00 12,4 5,6 - - 11 6 NNE 1027,2 10 0 0,0
17.09.2019 20:00:00 13,7 5,1 - - 11 6 NNE 1026,6 10 0 0,0
17.09.2019 19:00:00 16,3 5,7 - - 15 8 NE 1025,9 10 42 0,0
17.09.2019 18:00:00 17,5 5,9 - - 18 10 NE - 10 60 0,0
17.09.2019 17:00:00 17,7 5,3 - - 18 10 NE 1014,8 10 60 0,0
17.09.2019 16:00:00 17,7 5,3 - - 16 9 NNE 1014,9 10 60 0,0
17.09.2019 15:00:00 18,1 6,8 - - 18 10 NNE 1015,0 10 60 0,0
17.09.2019 14:00:00 17,8 6,1 - - 16 9 N 1014,8 10 60 0,0
17.09.2019 13:00:00 17,8 6,1 - - 21 11 NNE 1015,0 10 60 0,0
17.09.2019 12:00:00 16,0 6,9 - - 21 11 N 1015,1 10 60 0,0
17.09.2019 11:00:00 15,0 6,3 - - 22 12 NNE 1015,1 10 60 0,0
17.09.2019 10:00:00 14,2 7,5 15,9 15,7 21 11 N 1015,0 10 60 0,0
17.09.2019 09:00:00 14,2 7,5 - - 4 2 W 1026,0 10 60 0,0
17.09.2019 08:00:00 8,7 7,2 - - 9 5 WNW 1025,6 10 48 0,0
17.09.2019 07:00:00 7,1 5,7 - - 5 3 W 1025,4 10 0 0,0
17.09.2019 06:00:00 7,7 6,5 - - 8 4 WNW 1024,8 10 0 0,0
17.09.2019 05:00:00 7,8 6,4 - - 5 3 W 1024,9 10 0 0,0
17.09.2019 04:00:00 8,7 6,9 - - 8 4 WNW 1024,6 30 0 0,0
17.09.2019 03:00:00 10,1 7,6 - - 4 2 W 1024,7 30 0 0,0
17.09.2019 02:00:00 10,9 7,5 - - 9 5 N 1024,6 10 0 0,0
17.09.2019 01:00:00 13,1 9,3 - - 11 6 N 1024,2 10 - 0,0
17.09.2019 00:00:00 14,0 9,6 - - 9 5 N 1024,0 30 0 0,0
16.09.2019 23:00:00 14,7 11,2 - - 11 6 N 1024,1 10 0 0,0
16.09.2019 22:00:00 15,0 11,6 - - 13 7 NNE 1023,9 10 0 0,0
16.09.2019 21:00:00 15,3 12,3 - - 11 6 N 1023,7 10 0 0,0
16.09.2019 20:00:00 15,8 12,6 - - 9 5 NNE 1022,9 10 0 0,0
16.09.2019 19:00:00 16,2 13,0 - - 11 6 NE 1022,6 10 0 0,0
16.09.2019 18:00:00 16,9 13,2 - - 15 8 NNE 1022,3 10 0 0,0
16.09.2019 17:00:00 17,7 14,0 - - 11 6 NNE 1022,0 10 0 0,0
16.09.2019 16:00:00 17,3 15,3 - - 5 3 N 1022,1 10 0 0,0
16.09.2019 15:00:00 17,0 15,2 - - 11 6 NNE 1022,3 10 0 0,0
16.09.2019 14:00:00 18,8 14,5 - - 11 6 NW 1021,9 10 0 0,0
16.09.2019 13:00:00 18,4 15,1 - - 8 4 WNW 1022,0 10 0 0,0
16.09.2019 12:00:00 18,5 14,7 - - 9 5 W 1022,1 10 0 0,0
16.09.2019 11:00:00 17,9 14,4 - - 8 4 WNW 1022,1 10 0 0,0
16.09.2019 10:00:00 17,2 14,4 16,0 15,7 8 4 W 1021,9 10 0 0,0
16.09.2019 09:00:00 15,9 14,0 - - 8 4 W 1021,7 7 0 0,0
16.09.2019 08:00:00 15,2 13,7 - - 8 4 W 1021,5 6 0 0,0
16.09.2019 07:00:00 15,0 13,7 - - 5 3 W 1021,4 4,0 0 0,0
16.09.2019 06:00:00 15,0 13,6 - - 5 3 W 1021,1 10 0 0,0
16.09.2019 05:00:00 15,0 13,6 - - 8 4 W 1021,4 10 0 0,0
16.09.2019 04:00:00 15,2 13,7 - - 9 5 WSW 1021,7 7 0 0,0
16.09.2019 03:00:00 15,3 13,8 - - 9 5 W 1022,2 10 0 0,0
16.09.2019 02:00:00 15,5 14,1 - - 8 4 WSW 1022,5 6 0 0,0
16.09.2019 01:00:00 15,6 14,1 - - 5 3 W 1022,7 10 - 0,0
16.09.2019 00:00:00 16,3 14,4 - - 8 4 WSW 1022,8 10 0 0,0
15.09.2019 23:00:00 17,6 14,7 - - 5 3 WSW 1022,8 10 0 0,0
15.09.2019 22:00:00 18,4 14,7 - - 5 3 WSW 1023,0 10 0 0,0
15.09.2019 21:00:00 19,3 14,4 - - 4 2 W 1022,9 10 0 0,0
15.09.2019 20:00:00 19,9 14,8 - - 4 2 WNW 1022,9 10 0 0,0
15.09.2019 19:00:00 20,5 14,6 - - 9 5 NW 1022,6 10 0 0,0
15.09.2019 18:00:00 21,7 14,3 - - 11 6 WNW 1022,7 10 30 0,0
15.09.2019 17:00:00 22,9 14,2 - - 11 6 WNW 1022,8 10 60 0,0
15.09.2019 16:00:00 23,4 14,4 - - 11 6 W 1023,2 10 60 0,0
15.09.2019 15:00:00 22,2 13,5 - - 13 7 NW 1023,6 10 60 0,0
15.09.2019 14:00:00 21,0 13,2 - - 9 5 WNW 1024,3 10 60 0,0
15.09.2019 13:00:00 21,2 14,3 - - 11 6 WNW 1024,9 10 24 0,0
15.09.2019 12:00:00 20,5 13,7 - - 15 8 WNW 1025,2 10 36 0,0
15.09.2019 11:00:00 19,6 11,3 - - 5 3 W 1025,5 10 60 0,0
15.09.2019 10:00:00 17,0 11,3 15,7 15,7 9 5 W 1025,3 10 60 0,0
15.09.2019 09:00:00 14,2 11,2 - - 9 5 W 1025,4 15 60 0,0
15.09.2019 08:00:00 11,2 10,3 - - 9 5 W 1025,4 4,0 30 0,0
15.09.2019 07:00:00 9,7 9,2 - - 9 5 W 1025,7 3,5 0 0,0
15.09.2019 06:00:00 8,6 7,7 - - 4 2 W 1025,8 4,5 0 0,0
15.09.2019 05:00:00 9,0 7,7 - - 5 3 NNW 1025,7 6 0 0,0
15.09.2019 04:00:00 10,3 8,6 - - 4 2 WSW 1025,8 10 0 0,0
15.09.2019 03:00:00 10,0 8,0 - - 4 2 W 1026,3 25 0 0,0
15.09.2019 02:00:00 10,8 7,5 - - 4 2 W 1026,9 10 0 0,0
15.09.2019 01:00:00 11,6 8,0 - - 5 3 WSW 1027,4 10 - 0,0
15.09.2019 00:00:00 12,4 8,0 - - 5 3 W 1027,7 10 0 0,0
14.09.2019 23:00:00 12,6 7,7 - - 2 1 W 1027,8 40 0 0,0
14.09.2019 22:00:00 14,2 8,0 - - 4 2 WSW 1028,1 10 0 0,0
14.09.2019 21:00:00 15,4 7,5 - - 4 2 W 1028,4 10 0 0,0
14.09.2019 20:00:00 17,7 6,5 - - 4 2 WSW 1028,4 10 0 0,0
14.09.2019 19:00:00 20,0 5,9 - - 4 2 WSW 1028,3 10 54 0,0
14.09.2019 18:00:00 21,4 6,6 - - 5 3 W 1028,6 10 42 0,0
14.09.2019 17:00:00 21,9 5,9 - - 8 4 W 1028,9 10 54 0,0
14.09.2019 16:00:00 22,1 5,4 - - 5 3 SW 1029,6 10 60 0,0
14.09.2019 15:00:00 21,2 6,5 - - 5 3 SSW 1030,6 10 60 0,0
14.09.2019 14:00:00 21,0 6,8 - - 5 3 W 1031,6 10 60 0,0
14.09.2019 13:00:00 19,5 7,0 - - 5 3 SSW 1032,5 10 60 0,0
14.09.2019 12:00:00 18,6 8,2 - - 5 3 ESE 1033,2 10 60 0,0
14.09.2019 11:00:00 17,1 10,0 - - 5 3 SE 1033,9 10 60 0,0
14.09.2019 10:00:00 14,5 10,1 15,7 15,7 4 2 E 1034,1 10 60 0,0
14.09.2019 09:00:00 12,0 9,2 - - 4 2 E 1034,6 10 60 0,0
14.09.2019 08:00:00 7,7 6,8 - - 0 0 N 1035,1 10 42 0,0
14.09.2019 07:00:00 6,1 5,0 - - 0 0 N 1035,1 10 0 0,0
14.09.2019 06:00:00 6,8 5,5 - - 2 1 E 1035,2 10 0 0,0
14.09.2019 05:00:00 7,3 5,9 - - 2 1 N 1035,3 20 0 0,0
14.09.2019 04:00:00 8,3 6,4 - - 2 1 ENE 1035,6 10 0 0,0
14.09.2019 03:00:00 8,6 5,8 - - 2 1 E 1035,8 10 0 0,0
14.09.2019 02:00:00 10,1 6,0 - - 5 3 NE 1036,3 10 0 0,0
14.09.2019 01:00:00 10,6 6,0 - - 8 4 NE 1036,3 10 - 0,0
14.09.2019 00:00:00 11,2 6,0 - - 5 3 NE 1036,1 10 0 0,0
13.09.2019 23:00:00 11,7 6,2 - - 11 6 NNE 1036,3 10 0 0,0
13.09.2019 22:00:00 12,5 5,7 - - 8 4 NNE 1036,3 10 0 0,0
13.09.2019 21:00:00 13,5 5,4 - - 11 6 NNE 1035,9 10 0 0,0
13.09.2019 20:00:00 14,9 5,0 - - 9 5 NNE 1035,6 10 0 0,0
13.09.2019 19:00:00 17,4 4,9 - - 13 7 NNE 1035,1 10 60 0,0
13.09.2019 18:00:00 18,8 4,4 - - 15 8 NE 1035,0 10 60 0,0

tt = temperature
td = dewpoint
tt -20cm = temperature -20cm
tt -100cm = temperature -100cm
ff = wind speed
dd = wind direction
ppp = reduced air pressure
vv = visibility
sd = sunshine duration
rr = precipitation

Next stations